SCP
0 0 0 0 -0 -0 0 0 0 0 0 0 0 0 0 0 0 -0 -0 -0 0 -0 -0 0 0 0 0 0 0 0 0 0 0 0 0 0 0 0 0 0 0 0 0 0
0 0 0 0 -0 -0 -0 -0 0 0 0 0 0 0 0 0 0 0 0 0 -0 -0 -0 0 0 0 0 -0 -0 -0 0 0 0 0 0 0 0 0 0 0 0 0 0 0
0 0 0 0 0 -0 0 -0 0 -0 -0 -0 -0 -0 0 0 0 0 0 0 0 0 -0 0 0 0 0 -0 -0 -0 0 0 0 0 0 0 0 0 0 0 0 0 0 0
0 0 0 0 0 0 -0 0 -0 -0 -0 0 -0 0 0 0 0 0 0 0 0 0 0 0 0 0 -0 -0 -0 -0 0 0 0 0 0 0 0 0 0 0 0 0 0 0
0 0 0 0 0 0 -0 0 -0 -0 0 0 0 0 -0 0 0 0 0 0 0 0 0 0 0 0 0 0 0 -0 0 0 0 0 0 0 0 0 0 0 0 0 0 0
0 0 0 0 0 0 0 0 -0 -0 -0 -0 -0 0 0 -0 0 0 0 0 0 0 0 0 0 0 0 0 0 0 0 0 -0 0 0 -0 0 0 0 0 0 0 0 -0
0 0 0 0 0 0 0 0 0 -0 -0 -0 -0 -0 0 -0 0 0 0 0 0 0 0 0 0 0 0 0 0 0 0 0 0 0 0 -0 -0 -0 -0 -0 0 0 0 0
0 0 0 0 0 0 0 -0 0 -0 -0 -0 -0 0 0 0 0 0 0 0 0 0 0 0 0 0 0 0 0 0 0 0 0 0 0 0 -0 -0 -0 -0 0 0 0 0
0 0 0 0 0 0 0 0 0 -0 0 0 0 0 0 0 0 0 -0 0 0 0 0 0 0 0 0 0 0 0 0 0 0 -0 0 -0 -0 -0 -0 0 -0 -0 -0 0
0 0 0 0 0 0 0 0 0 0 0 0 0 -0 -0 -0 0 0 0 0 0 0 0 0 0 0 0 0 0 0 0 0 0 0 0 0 0 -0 -0 -0 0 -0 -0 -0
0 0 -0 0 0 -0 -0 0 0 0 -0 -0 0 0 0 0 0 0 0 0 0 0 0 0 0 0 0 0 0 0 0 0 0 0 0 0 0 0 -0 -0 -0 -0 -0 -0
0 0 -0 -0 0 -0 -0 -0 -0 -0 -0 -0 -0 -0 -0 0 0 0 0 0 0 0 0 0 0 0 0 -0 0 0 0 0 0 0 0 0 -0 -0 -0 -0 -0 -0 0 0
0 0 0 -0 -0 0 -0 -0 -0 -0 -0 -0 -0 -0 -0 -0 0 0 0 0 0 0 0 0 0 -0 -0 -0 -0 -0 -0 -0 -0 -0 0 0 0 -0 -0 -0 -0 -0 0 0
0 0 -0 0 0 -0 0 0 0 0 0 -0 -0 0 -0 -0 0 -0 -0 -0 -0 -0 -0 0 0 0 0 -0 0 -0 -0 -0 -0 -0 0 0 0 0 0 0 -0 -0 -0 0
0 0 0 0 0 0 0 0 0 -0 -0 0 0 -0 -0 -0 -0 -0 -0 -0 -0 -0 -0 -0 -0 -0 0 0 0 0 0 -0 -0 -0 0 0 0 0 0 0 0 0 0 0
0 0 0 0 0 0 0 0 0 -0 0 0 0 -0 -0 0 0 0 0 -0 -0 -0 -0 0 0 0 0 0 0 0 0 0 -0 0 0 0 0 0 0 0 0 0 0 0
0 0 0 0 0 0 0 0 0 0 0 0 0 0 0 0 0 0 0 0 0 -0 0 0 0 0 0 0 0 0 0 0 0 0 0 0 0 0 0 0 0 0 0 0
0 0 0 0 0 0 0 0 0 0 0 0 0 0 0 0 0 0 0 0 0 -0 -0 0 0 0 0 0 0 0 0 0 0 0 0 0 0 0 0 0 0 0 0 0
0 0 0 0 0 0 0 0 0 0 0 0 0 0 0 0 0 0 0 0 0 0 -0 0 0 0 0 0 0 0 0 0 0 0 0 0 0 0 0 0 0 0 0 0
0 0 0 0 0 0 0 0 0 0 0 0 0 0 0 0 0 0 0 0 0 0 0 0 0 0 0 0 0 0 0 0 0 0 0 0 0 0 0 0 0 0 0 0
0 0 0 0 0 0 0 0 0 0 0 0 0 0 0 0 0 0 0 0 0 0 0 0 0 0 0 0 0 0 0 0 0 0 0 0 0 0 0 0 0 0 0 0
0 0 0 0 0 0 0 0 0 0 0 0 0 0 0 0 0 0 0 0 0 0 0 0 0 0 0 0 0 0 0 0 0 0 0 0 0 0 0 0 0 0 0 0
0 0 0 0 0 0 0 0 0 0 0 0 0 0 0 0 0 0 0 0 0 0 0 0 0 0 0 0 0 0 0 0 0 0 0 0 0 0 0 0 0 0 0 0
0 0 0 0 0 0 0 0 0 0 0 0 0 0 0 0 0 0 0 0 0 0 0 0 0 0 0 0 0 0 0 0 0 0 0 0 0 0 0 0 0 0 0 0
0 0 0 0 0 0 0 0 0 0 0 0 0 0 0 0 0 0 0 0 0 0 0 0 0 0 0 0 0 0 0 0 0 0 0 0 0 0 0 0 0 0 0 0
0 0 0 0 0 0 0 0 0 0 0 0 0 0 0 0 0 0 0 0 0 0 0 0 0 0 0 0 0 0 0 0 0 0 0 0 0 0 0 0 0 0 0 0
0 0 0 0 0 0 0 0 0 0 0 0 0 0 0 0 0 0 0 0 0 0 0 0 0 0 0 0 0 0 0 0 0 0 0 0 0 0 0 0 0 0 0 0
Wind_Speed_500mb
14 15 10 14 16 15 12 7 8 8 9 9 10 10 18 24 25 29 31 38 45 49 55 59 57 52 45 44 40 41 32 31 30 24 17 18 21 23 20 27 23 35 44 24
9 8 12 17 16 15 10 7 15 8 12 19 14 15 21 19 19 22 28 32 36 41 45 49 51 54 54 49 42 45 42 43 38 35 29 22 16 19 13 8 3 1 7 17
10 3 9 8 13 21 8 12 10 14 13 14 10 19 23 17 17 20 24 30 31 35 42 42 40 42 48 49 40 40 44 43 37 35 33 24 20 16 11 6 5 5 8 13
9 10 5 10 5 8 12 11 18 6 6 20 28 16 25 25 16 14 18 23 28 34 38 42 39 34 31 35 40 42 42 44 41 33 38 33 28 27 21 19 17 15 13 13
3 3 14 3 10 13 13 12 28 22 18 27 22 15 35 30 15 7 11 19 25 31 34 35 38 39 37 34 35 35 39 42 42 39 41 40 41 39 37 33 32 31 29 28
1 3 9 9 8 18 11 8 33 46 36 36 20 4 8 11 8 3 5 10 15 19 24 25 29 30 31 35 35 38 37 39 38 38 38 40 41 39 36 35 35 32 31 33
5 9 17 12 20 22 10 9 38 60 51 44 15 24 1 12 8 3 2 3 8 13 16 21 23 24 25 29 34 37 35 34 34 35 37 42 41 39 38 36 36 37 38 39
6 3 16 28 17 13 11 9 39 55 51 49 41 16 18 13 8 6 6 5 2 5 10 15 18 20 22 25 30 29 28 28 33 35 37 37 38 38 36 37 38 40 41 43
19 13 8 68 10 41 15 14 34 53 47 37 32 31 27 21 15 12 11 10 8 5 5 9 12 16 19 22 25 25 25 26 29 32 33 34 34 36 38 41 43 46 47 48
6 8 41 39 67 21 37 24 28 45 41 39 37 31 30 26 22 18 15 14 14 12 6 3 8 12 18 20 21 21 20 21 21 23 27 30 33 35 38 40 42 44 46 48
12 28 31 43 64 67 55 38 33 40 45 40 35 33 33 30 27 23 21 19 18 19 13 5 1 5 12 15 14 15 15 16 19 22 25 28 30 32 35 43 48 50 53 54
15 30 17 19 32 66 69 69 54 48 52 50 44 39 36 34 29 26 24 25 24 23 20 13 6 0 5 8 8 8 10 11 13 16 19 21 25 33 39 42 44 45 46 47
53 45 37 30 20 21 46 64 69 61 56 55 51 45 42 39 35 28 28 29 30 25 25 21 15 8 4 3 4 5 6 9 13 16 19 21 25 29 30 32 34 37 39 43
73 69 52 59 40 36 34 33 54 65 61 56 52 50 48 46 42 36 33 26 31 31 30 29 26 18 12 7 4 3 1 7 11 13 16 18 21 23 25 26 29 33 37 40
74 68 75 65 44 53 51 44 51 66 71 66 64 59 55 53 48 37 33 37 36 38 39 37 36 28 21 17 13 11 7 1 3 6 9 12 13 15 17 20 23 26 28 29
58 61 78 81 73 67 54 60 63 65 77 76 74 71 63 54 46 41 41 43 47 43 37 39 38 37 31 26 21 18 15 9 4 1 2 3 5 7 11 14 17 21 25 29
77 67 64 74 92 87 83 72 63 67 73 82 78 69 64 60 57 53 45 43 42 41 43 44 39 45 39 34 29 26 22 16 11 8 7 5 2 2 5 7 11 16 20 25
85 76 61 59 72 75 83 81 74 67 72 76 76 72 70 70 66 54 46 43 44 49 50 45 51 50 45 40 36 33 29 22 17 15 15 12 10 8 7 9 12 13 15 19
105 116 99 74 59 59 57 60 71 73 70 70 77 79 74 68 61 53 50 54 52 51 47 50 53 52 50 45 42 39 33 26 21 21 21 18 17 14 13 12 14 14 14 15
71 70 80 96 94 69 63 51 42 61 73 71 73 77 77 71 64 60 59 62 56 50 47 53 55 56 55 50 46 42 38 31 27 27 26 23 22 20 19 18 18 19 17 14
35 43 50 57 72 92 102 79 56 53 65 77 79 83 81 70 66 67 67 68 60 57 54 57 60 60 60 55 50 46 43 38 34 30 29 26 25 23 22 22 23 22 21 19
24 29 34 40 49 56 68 85 78 64 60 75 78 79 78 73 69 72 68 66 59 61 61 61 62 62 62 59 54 51 48 42 35 31 31 28 26 25 24 25 26 26 26 25
29 32 34 39 42 43 45 65 78 70 62 67 78 78 80 75 69 69 67 58 56 59 62 60 60 62 62 59 56 53 50 43 36 33 32 30 28 28 27 27 28 29 29 30
30 27 32 37 39 42 49 60 67 62 57 56 64 68 69 68 63 60 57 56 55 56 56 58 61 62 60 58 56 55 53 45 39 35 35 35 33 33 32 31 30 32 33 33
21 22 25 27 31 32 33 43 54 56 53 53 58 62 63 62 59 52 53 53 51 51 51 55 59 59 58 57 56 56 53 48 43 41 40 40 39 40 39 37 35 37 37 37
16 14 17 18 16 19 28 36 41 43 47 50 55 59 59 57 54 53 51 47 45 43 49 53 55 56 56 55 55 57 55 51 47 44 44 45 47 47 46 44 42 41 41 42
14 11 9 10 18 22 24 26 28 29 33 38 41 44 47 47 46 45 43 41 42 44 47 51 53 53 54 54 55 57 56 52 49 46 45 47 49 49 50 49 48 47 47 48
Wind_Direction_500mb
257 266 260 262 263 244 206 202 205 254 210 242 224 252 282 322 344 351 2 11 15 15 17 27 30 34 43 56 64 73 84 106 115 129 174 194 207 205 205 244 276 268 290 285
290 253 264 279 264 240 221 241 250 239 259 220 217 251 292 306 328 342 1 15 15 18 20 24 28 34 38 44 51 71 75 79 91 100 103 111 109 112 121 114 154 151 273 296
270 308 318 333 221 197 202 227 215 216 231 149 214 251 273 299 335 348 0 12 17 20 24 26 27 30 36 40 41 55 77 79 79 88 94 91 90 80 80 81 74 14 346 316
278 351 6 238 183 191 187 219 214 226 220 186 209 245 281 277 301 337 357 8 19 22 24 27 36 43 43 41 40 45 56 72 77 74 82 87 87 84 76 68 63 56 36 7
243 228 293 297 205 179 181 272 201 207 215 214 227 279 279 260 264 317 7 21 21 24 24 26 30 37 44 53 54 55 55 59 68 71 73 74 75 72 68 65 60 52 44 34
285 233 221 236 181 179 159 285 193 194 205 199 186 197 256 206 214 264 7 21 25 27 28 27 37 41 43 52 60 63 59 60 63 68 72 75 75 71 69 64 61 57 50 42
214 242 282 233 161 152 86 240 182 195 200 190 190 213 300 177 198 225 264 350 21 21 27 35 40 39 44 48 51 51 49 51 56 61 67 68 70 73 70 68 64 59 51 43
132 147 284 164 125 177 209 186 192 194 198 199 211 220 214 197 205 218 223 239 289 8 21 32 32 34 39 43 50 49 48 51 57 62 63 65 65 65 63 61 58 53 48 41
193 214 243 183 213 202 196 190 193 196 198 206 213 221 216 213 214 223 217 221 232 275 341 29 27 33 35 40 45 47 47 51 53 57 59 58 59 57 54 51 48 44 40 36
45 257 233 228 223 229 227 223 208 203 203 207 217 218 218 219 222 227 226 224 222 227 244 8 25 36 39 38 44 50 49 53 58 57 56 53 50 51 50 50 48 45 41 37
265 274 264 270 232 234 230 226 214 207 211 217 218 220 219 221 226 232 235 236 231 225 222 218 54 50 43 39 48 56 50 50 49 46 44 43 45 47 47 45 43 39 35 30
225 214 203 246 248 237 229 226 223 216 211 215 219 219 217 219 224 232 238 232 228 223 222 220 219 231 38 31 46 65 69 60 53 47 46 46 47 44 42 40 40 38 33 29
238 252 254 255 253 242 233 233 225 223 225 223 220 218 219 218 221 232 235 232 226 222 220 220 227 229 243 341 0 27 46 43 43 45 48 50 47 45 43 41 38 36 31 26
246 250 256 246 246 250 241 239 233 230 231 229 227 224 222 222 221 227 229 225 220 223 223 221 223 224 230 244 248 241 2 31 33 36 45 47 48 48 47 43 37 31 28 25
252 249 251 253 255 243 241 241 235 225 224 223 220 224 225 224 226 230 229 227 223 221 221 219 219 218 223 230 230 225 223 214 20 35 48 50 48 46 44 43 38 35 33 26
251 247 248 249 247 241 241 240 237 232 221 221 221 223 225 228 231 234 234 231 229 230 226 221 217 216 222 226 228 224 222 224 249 298 47 63 58 53 41 34 28 27 26 23
245 244 239 244 240 237 236 238 240 236 229 224 225 225 225 226 229 233 237 235 229 219 217 220 217 219 221 226 227 223 221 223 230 240 241 234 250 324 354 14 17 17 19 18
250 255 260 259 256 245 238 237 237 235 234 231 227 225 224 227 231 234 235 232 229 225 225 221 217 220 223 227 229 226 223 222 227 234 239 239 251 265 295 328 341 355 6 11
249 248 252 252 252 254 247 240 239 236 235 231 226 225 227 232 234 234 232 231 232 231 228 228 229 226 225 228 230 229 226 226 232 238 240 243 251 260 274 293 311 325 337 350
252 250 248 247 247 246 247 243 240 237 234 232 228 226 226 228 230 231 232 235 238 242 238 234 233 228 227 229 230 229 228 229 236 243 244 245 249 257 268 283 298 307 313 324
259 254 253 250 246 244 243 242 240 240 234 228 227 225 225 226 228 229 234 237 236 238 239 237 233 229 227 228 229 227 228 231 238 245 247 250 255 261 270 280 290 298 302 305
258 247 242 244 248 247 240 235 235 234 232 226 227 225 225 226 229 231 237 242 243 239 241 241 232 226 225 226 227 226 225 230 238 247 250 253 258 264 273 281 288 294 296 296
269 253 248 246 252 252 242 226 225 228 230 228 224 224 224 226 230 233 241 243 236 239 242 237 229 225 225 227 226 226 225 230 239 247 250 251 255 259 264 271 278 286 290 290
276 265 253 247 241 240 233 222 218 221 227 225 224 225 226 228 232 238 241 242 243 242 239 231 224 223 224 225 226 225 226 231 238 245 246 246 249 255 259 265 270 275 279 281
283 275 262 255 255 248 225 213 217 218 221 220 217 217 221 226 234 237 240 245 244 238 226 222 222 222 223 225 227 226 226 233 240 246 248 247 249 253 254 257 262 267 271 275
285 265 252 249 242 225 214 214 219 219 220 216 213 215 221 227 229 235 236 235 231 227 220 219 222 224 225 226 228 227 229 236 244 252 256 255 256 258 260 260 261 264 267 269
287 278 260 231 211 200 204 212 220 216 212 212 216 218 222 227 228 229 230 229 223 219 219 220 222 224 226 229 231 230 234 242 250 258 264 266 266 269 271 271 270 269 270 271
Wind_Speed_850mb
14 15 10 14 16 15 12 7 8 8 9 9 10 10 18 24 25 29 31 38 45 49 55 59 57 52 45 44 40 41 32 31 30 24 17 18 21 23 20 27 23 35 44 24
9 8 12 17 16 15 10 7 15 8 12 19 14 15 21 19 19 22 28 32 36 41 45 49 51 54 54 49 42 45 42 43 38 35 29 22 16 19 13 8 3 1 7 17
10 3 9 8 13 21 8 12 10 14 13 14 10 19 23 17 17 20 24 30 31 35 42 42 40 42 48 49 40 40 44 43 37 35 33 24 20 16 11 6 5 5 8 13
9 10 5 10 5 8 12 11 18 6 6 20 28 16 25 25 16 14 18 23 28 34 38 42 39 34 31 35 40 42 42 44 41 33 38 33 28 27 21 19 17 15 13 13
3 3 14 3 10 13 13 12 28 22 18 27 22 15 35 30 15 7 11 19 25 31 34 35 38 39 37 34 35 35 39 42 42 39 41 40 41 39 37 33 32 31 29 28
1 3 9 9 8 18 11 8 33 46 36 36 20 4 8 11 8 3 5 10 15 19 24 25 29 30 31 35 35 38 37 39 38 38 38 40 41 39 36 35 35 32 31 33
5 9 17 12 20 22 10 9 38 60 51 44 15 24 1 12 8 3 2 3 8 13 16 21 23 24 25 29 34 37 35 34 34 35 37 42 41 39 38 36 36 37 38 39
6 3 16 28 17 13 11 9 39 55 51 49 41 16 18 13 8 6 6 5 2 5 10 15 18 20 22 25 30 29 28 28 33 35 37 37 38 38 36 37 38 40 41 43
19 13 8 68 10 41 15 14 34 53 47 37 32 31 27 21 15 12 11 10 8 5 5 9 12 16 19 22 25 25 25 26 29 32 33 34 34 36 38 41 43 46 47 48
6 8 41 39 67 21 37 24 28 45 41 39 37 31 30 26 22 18 15 14 14 12 6 3 8 12 18 20 21 21 20 21 21 23 27 30 33 35 38 40 42 44 46 48
12 28 31 43 64 67 55 38 33 40 45 40 35 33 33 30 27 23 21 19 18 19 13 5 1 5 12 15 14 15 15 16 19 22 25 28 30 32 35 43 48 50 53 54
15 30 17 19 32 66 69 69 54 48 52 50 44 39 36 34 29 26 24 25 24 23 20 13 6 0 5 8 8 8 10 11 13 16 19 21 25 33 39 42 44 45 46 47
53 45 37 30 20 21 46 64 69 61 56 55 51 45 42 39 35 28 28 29 30 25 25 21 15 8 4 3 4 5 6 9 13 16 19 21 25 29 30 32 34 37 39 43
73 69 52 59 40 36 34 33 54 65 61 56 52 50 48 46 42 36 33 26 31 31 30 29 26 18 12 7 4 3 1 7 11 13 16 18 21 23 25 26 29 33 37 40
74 68 75 65 44 53 51 44 51 66 71 66 64 59 55 53 48 37 33 37 36 38 39 37 36 28 21 17 13 11 7 1 3 6 9 12 13 15 17 20 23 26 28 29
58 61 78 81 73 67 54 60 63 65 77 76 74 71 63 54 46 41 41 43 47 43 37 39 38 37 31 26 21 18 15 9 4 1 2 3 5 7 11 14 17 21 25 29
77 67 64 74 92 87 83 72 63 67 73 82 78 69 64 60 57 53 45 43 42 41 43 44 39 45 39 34 29 26 22 16 11 8 7 5 2 2 5 7 11 16 20 25
85 76 61 59 72 75 83 81 74 67 72 76 76 72 70 70 66 54 46 43 44 49 50 45 51 50 45 40 36 33 29 22 17 15 15 12 10 8 7 9 12 13 15 19
105 116 99 74 59 59 57 60 71 73 70 70 77 79 74 68 61 53 50 54 52 51 47 50 53 52 50 45 42 39 33 26 21 21 21 18 17 14 13 12 14 14 14 15
71 70 80 96 94 69 63 51 42 61 73 71 73 77 77 71 64 60 59 62 56 50 47 53 55 56 55 50 46 42 38 31 27 27 26 23 22 20 19 18 18 19 17 14
35 43 50 57 72 92 102 79 56 53 65 77 79 83 81 70 66 67 67 68 60 57 54 57 60 60 60 55 50 46 43 38 34 30 29 26 25 23 22 22 23 22 21 19
24 29 34 40 49 56 68 85 78 64 60 75 78 79 78 73 69 72 68 66 59 61 61 61 62 62 62 59 54 51 48 42 35 31 31 28 26 25 24 25 26 26 26 25
29 32 34 39 42 43 45 65 78 70 62 67 78 78 80 75 69 69 67 58 56 59 62 60 60 62 62 59 56 53 50 43 36 33 32 30 28 28 27 27 28 29 29 30
30 27 32 37 39 42 49 60 67 62 57 56 64 68 69 68 63 60 57 56 55 56 56 58 61 62 60 58 56 55 53 45 39 35 35 35 33 33 32 31 30 32 33 33
21 22 25 27 31 32 33 43 54 56 53 53 58 62 63 62 59 52 53 53 51 51 51 55 59 59 58 57 56 56 53 48 43 41 40 40 39 40 39 37 35 37 37 37
16 14 17 18 16 19 28 36 41 43 47 50 55 59 59 57 54 53 51 47 45 43 49 53 55 56 56 55 55 57 55 51 47 44 44 45 47 47 46 44 42 41 41 42
14 11 9 10 18 22 24 26 28 29 33 38 41 44 47 47 46 45 43 41 42 44 47 51 53 53 54 54 55 57 56 52 49 46 45 47 49 49 50 49 48 47 47 48
Wind_Direction_850mb
257 266 260 262 263 244 206 202 205 254 210 242 224 252 282 322 344 351 2 11 15 15 17 27 30 34 43 56 64 73 84 106 115 129 174 194 207 205 205 244 276 268 290 285
290 253 264 279 264 240 221 241 250 239 259 220 217 251 292 306 328 342 1 15 15 18 20 24 28 34 38 44 51 71 75 79 91 100 103 111 109 112 121 114 154 151 273 296
270 308 318 333 221 197 202 227 215 216 231 149 214 251 273 299 335 348 0 12 17 20 24 26 27 30 36 40 41 55 77 79 79 88 94 91 90 80 80 81 74 14 346 316
278 351 6 238 183 191 187 219 214 226 220 186 209 245 281 277 301 337 357 8 19 22 24 27 36 43 43 41 40 45 56 72 77 74 82 87 87 84 76 68 63 56 36 7
243 228 293 297 205 179 181 272 201 207 215 214 227 279 279 260 264 317 7 21 21 24 24 26 30 37 44 53 54 55 55 59 68 71 73 74 75 72 68 65 60 52 44 34
285 233 221 236 181 179 159 285 193 194 205 199 186 197 256 206 214 264 7 21 25 27 28 27 37 41 43 52 60 63 59 60 63 68 72 75 75 71 69 64 61 57 50 42
214 242 282 233 161 152 86 240 182 195 200 190 190 213 300 177 198 225 264 350 21 21 27 35 40 39 44 48 51 51 49 51 56 61 67 68 70 73 70 68 64 59 51 43
132 147 284 164 125 177 209 186 192 194 198 199 211 220 214 197 205 218 223 239 289 8 21 32 32 34 39 43 50 49 48 51 57 62 63 65 65 65 63 61 58 53 48 41
193 214 243 183 213 202 196 190 193 196 198 206 213 221 216 213 214 223 217 221 232 275 341 29 27 33 35 40 45 47 47 51 53 57 59 58 59 57 54 51 48 44 40 36
45 257 233 228 223 229 227 223 208 203 203 207 217 218 218 219 222 227 226 224 222 227 244 8 25 36 39 38 44 50 49 53 58 57 56 53 50 51 50 50 48 45 41 37
265 274 264 270 232 234 230 226 214 207 211 217 218 220 219 221 226 232 235 236 231 225 222 218 54 50 43 39 48 56 50 50 49 46 44 43 45 47 47 45 43 39 35 30
225 214 203 246 248 237 229 226 223 216 211 215 219 219 217 219 224 232 238 232 228 223 222 220 219 231 38 31 46 65 69 60 53 47 46 46 47 44 42 40 40 38 33 29
238 252 254 255 253 242 233 233 225 223 225 223 220 218 219 218 221 232 235 232 226 222 220 220 227 229 243 341 0 27 46 43 43 45 48 50 47 45 43 41 38 36 31 26
246 250 256 246 246 250 241 239 233 230 231 229 227 224 222 222 221 227 229 225 220 223 223 221 223 224 230 244 248 241 2 31 33 36 45 47 48 48 47 43 37 31 28 25
252 249 251 253 255 243 241 241 235 225 224 223 220 224 225 224 226 230 229 227 223 221 221 219 219 218 223 230 230 225 223 214 20 35 48 50 48 46 44 43 38 35 33 26
251 247 248 249 247 241 241 240 237 232 221 221 221 223 225 228 231 234 234 231 229 230 226 221 217 216 222 226 228 224 222 224 249 298 47 63 58 53 41 34 28 27 26 23
245 244 239 244 240 237 236 238 240 236 229 224 225 225 225 226 229 233 237 235 229 219 217 220 217 219 221 226 227 223 221 223 230 240 241 234 250 324 354 14 17 17 19 18
250 255 260 259 256 245 238 237 237 235 234 231 227 225 224 227 231 234 235 232 229 225 225 221 217 220 223 227 229 226 223 222 227 234 239 239 251 265 295 328 341 355 6 11
249 248 252 252 252 254 247 240 239 236 235 231 226 225 227 232 234 234 232 231 232 231 228 228 229 226 225 228 230 229 226 226 232 238 240 243 251 260 274 293 311 325 337 350
252 250 248 247 247 246 247 243 240 237 234 232 228 226 226 228 230 231 232 235 238 242 238 234 233 228 227 229 230 229 228 229 236 243 244 245 249 257 268 283 298 307 313 324
259 254 253 250 246 244 243 242 240 240 234 228 227 225 225 226 228 229 234 237 236 238 239 237 233 229 227 228 229 227 228 231 238 245 247 250 255 261 270 280 290 298 302 305
258 247 242 244 248 247 240 235 235 234 232 226 227 225 225 226 229 231 237 242 243 239 241 241 232 226 225 226 227 226 225 230 238 247 250 253 258 264 273 281 288 294 296 296
269 253 248 246 252 252 242 226 225 228 230 228 224 224 224 226 230 233 241 243 236 239 242 237 229 225 225 227 226 226 225 230 239 247 250 251 255 259 264 271 278 286 290 290
276 265 253 247 241 240 233 222 218 221 227 225 224 225 226 228 232 238 241 242 243 242 239 231 224 223 224 225 226 225 226 231 238 245 246 246 249 255 259 265 270 275 279 281
283 275 262 255 255 248 225 213 217 218 221 220 217 217 221 226 234 237 240 245 244 238 226 222 222 222 223 225 227 226 226 233 240 246 248 247 249 253 254 257 262 267 271 275
285 265 252 249 242 225 214 214 219 219 220 216 213 215 221 227 229 235 236 235 231 227 220 219 222 224 225 226 228 227 229 236 244 252 256 255 256 258 260 260 261 264 267 269
287 278 260 231 211 200 204 212 220 216 212 212 216 218 222 227 228 229 230 229 223 219 219 220 222 224 226 229 231 230 234 242 250 258 264 266 266 269 271 271 270 269 270 271